Flag for Guatemala Weather past 2 weeks in Escuintla, Guatemala

Now
77 °F

Scattered clouds.


Feels Like: 79 °F
Forecast: 67 / 95 °F
Wind: 23 mph from Northeast

Location: Guatemala Aeropuertola Aurora

Current Time: Jul 23, 2014 at 2:22:50 PM

Latest Report: Jul 23, 2014 at 2:00 PM


Visibility: N/A

Pressure: 30.24 "Hg

Humidity: 51%

Dew point: 57 °F

Location of EscuintlaLocation

Historic Weather in Escuintla — Graph

°F

Escuintla temperature yesterday

Maximum temperature yesterday: 77 °F (at 11:00 AM)
Minimum temperature yesterday: 63 °F (at 5:00 AM)
Average temperature yesterday: 67 °F

Past Weeks' High & Low Weather Summary

 TemperatureHumidityPressure
High82 °F (Jul 17, 2:00 PM)100% (Jul 11, 5:00 AM)30.36 "Hg (Jul 11, 5:00 AM)
Low61 °F (Jul 11, 5:00 AM)34% (Jul 9, 2:00 PM)30.18 "Hg (Jul 15, 6:00 PM)
Average69 °F77%30.30 "Hg
* Reported Jul 8 1:00 PM — Jul 23 1:00 PM, Escuintla, Weather by CustomWeather, © 2014

Note: Actual official high and low records may vary slightly from our data, if they occured in-between our weather recording intervals... More about our weather records

Advertising

Escuintla weather history for previous 24 hours

 ConditionsComfort  
Time TempWeatherWind HumidityBarometerVisibility
1:00 PM
Jul 23
77 °FScattered clouds.21 mph54%30.27 "HgN/A
12:00 PM77 °FBroken clouds.21 mph94%30.27 "HgN/A
11:00 AM75 °FPartly sunny.16 mph57%30.30 "HgN/A
10:00 AM72 °FBroken clouds.12 mph69%30.33 "HgN/A
9:00 AM70 °FPartly sunny.16 mph73%30.33 "HgN/A
8:00 AM66 °FPartly sunny.12 mph83%30.33 "HgN/A
7:00 AM64 °FScattered clouds.12 mph88%30.30 "HgN/A
6:05 AMN/APartly sunny.14 mphN/AN/AN/A
5:00 AM63 °FPassing clouds.9 mph94%30.30 "HgN/A
4:00 AM63 °FPassing clouds.9 mph94%30.30 "HgN/A
3:00 AM63 °FPassing clouds.12 mph94%30.30 "HgN/A
2:00 AM64 °FPassing clouds.12 mph88%30.30 "HgN/A
12:00 AM64 °FClear.9 mph94%30.33 "Hg10 mi
11:00 PM
Jul 22
64 °FClear.14 mph88%30.33 "Hg10 mi
10:00 PM66 °FPassing clouds.12 mph88%30.33 "HgN/A
9:05 PMN/APassing clouds.16 mphN/AN/AN/A
9:00 PM66 °FPassing clouds.16 mph94%30.30 "Hg5 mi
8:00 PM70 °FPassing clouds.16 mph78%30.27 "HgN/A
7:00 PM72 °FPassing clouds.18 mph69%30.27 "HgN/A
6:00 PM72 °FScattered clouds.18 mph69%30.24 "HgN/A
Weather by CustomWeather, © 2014

See weather overviewHow to use our weather pages